Regional Weather Roundup
Issued by NWS

Home | Current Version | Previous Version | Text Only | Print | Product List | Glossary Off
Versions: 1 2 3 4 5 6 7 8 9 10 11 12 13 14 15 16 17 18 19 20 21 22 23 24 25 26 27 28 29 30 31 32 33 34 35 36 37 38 39 40 41 42 43 44 45 46 47 48 49 50

000
ASUS44 KMEG 301700
RWRTN
TENNESSEE HOURLY STATE WEATHER ROUNDUP
NATIONAL WEATHER SERVICE MEMPHIS TN
1200 PM CDT THU JUL 30 2015

TNZ002-004-019-021-049-052-054-088>092-301800-
WEST TENNESSEE

CITY           SKY/WX    TMP DP  RH WIND       PRES   REMARKS
MEMPHIS INTL   MOSUNNY   88  67  49 NE15      30.12R HX  91
NWS MEMPHIS      N/A     85 N/A N/A MISG        N/A
JACKSON        SUNNY     89  60  37 NE13      30.13R
DYERSBURG        N/A    N/A N/A N/A MISG        N/A
PARIS          SUNNY     81  61  50 NE12      30.15S
$$

TNZ008-025-027-028-033-062-065-066-301800-
NORTH MIDDLE TENNESSEE

CITY           SKY/WX    TMP DP  RH WIND       PRES   REMARKS
NASHVILLE      MOSUNNY   85  61  44 NE9       30.11S
CLARKSVILLE    SUNNY     83  61  47 NE6       30.13S
CROSSVILLE     PTSUNNY   82  69  64 NW10      30.14R
$$

TNZ061-075-076-078-094-096-097-301800-
SOUTH MIDDLE TENNESSEE

CITY           SKY/WX    TMP DP  RH WIND       PRES   REMARKS
FAYETTEVILLE   PTSUNNY   82  72  69 N8        30.10S
TULLAHOMA      MOSUNNY   82  70  65 N8        30.11S
WINCHESTER     MOSUNNY   84  73  70 N10       30.09S HX  91
MCMINNVILLE    SUNNY     84  73  70 NE8       30.11S HX  91
COLUMBIA       SUNNY     86  70  58 N8        30.10S HX  90
SHELBYVILLE    SUNNY     86  66  51 NE12      30.11S
$$

TNZ017-018-042-046-047-301800-
NORTHEAST TENNESSEE

CITY           SKY/WX    TMP DP  RH WIND       PRES   REMARKS
TRI CITIES     PTSUNNY   86  72  62 N5        30.06S HX  92
ELIZABETHTON   PTSUNNY   82  72  69 NW8       30.06S
$$

TNZ012-013-036-069-073-074-301800-
CENTRAL EAST TENNESSEE

CITY           SKY/WX    TMP DP  RH WIND       PRES   REMARKS
KNOXVILLE      PTSUNNY   86  72  62 CALM      30.05S HX  92
OAK RIDGE      PTSUNNY   87  73  62 E7        30.06F HX  94
GATLINBURG       N/A     86  70  58 CALM      30.05S HX  90
$$

TNZ083-085-099-301800-
SOUTHEAST TENNESSEE

CITY           SKY/WX    TMP DP  RH WIND       PRES   REMARKS
CHATTANOOGA    PTSUNNY   88  73  61 N10G21    30.05S HX  95
$$

SKY/WX REPORTED AS FAIR MEANS FEW OR NO CLOUDS BELOW
12 THOUSAND FEET.



USA.gov is the U.S. government's official web portal to all federal, state and local government web resources and services.